Weather History for Perry, IA

Change the Weather History Date:

Tuesday, April 16, 2013

  Actual Average Record
Temperature  
Mean Temperature 41 °F -  
Max Temperature 50 °F 61 °F 85 °F (1964)
Min Temperature 32 °F 38 °F 23 °F (1949)
Degree Days  
Heating Degree Days 24    
Moisture  
Dew Point 31 °F    
Average Humidity 69    
Maximum Humidity 89    
Minimum Humidity 48    
Precipitation  
Precipitation 0.00 in - - ()
Sea Level Pressure  
Sea Level Pressure 30.17 in    
Wind  
Wind Speed 7 mph (North)    
Max Wind Speed 15 mph    
Max Gust Speed 21 mph    
Visibility 10 miles    
Events      
Averages and records for this station are not official NWS values.
T = Trace of Precipitation, MM = Missing Value Source: NWS Daily Summary

Daily Weather History Graph

Daily Weather History Graph

Search for Another Location

Airport:

Trip Planner

Search our weather history database for the weather conditions in past years. The results will help you decide how hot, cold, wet, or windy it might be!

Date:

Astronomy

Apr. 16, 2013 Rise Set
Actual Time 6:34 AM CDT 7:58 PM CDT
Civil Twilight 6:05 AM CDT 8:28 PM CDT
Nautical Twilight 5:30 AM CDT 9:03 PM CDT
Astronomical Twilight 4:53 AM CDT 9:40 PM CDT
Moon 10:51 AM CDT (4/16) 12:59 AM CDT (4/16)
Length of Visible Light 14h 22m
Length of Day
13h 24m
Waxing Crescent, 33% of the Moon is Illuminated
Apr 16
Waxing Crescent
Apr 18
First Quarter
Apr 25
Full
May 2
Last Quarter
May 9
New

Hourly Weather History & Observations

Time (CDT) Temp. Windchill Dew Point Humidity Pressure Visibility Wind Dir Wind Speed Gust Speed Precip Events Conditions
12:15 AM 35.1 °F 29.3 °F 30.0 °F 82% 30.07 in 10.0 mi NNW 6.9 mph - N/A   Clear
12:35 AM 34.7 °F 29.6 °F 30.0 °F 83% 30.08 in 10.0 mi NNW 5.8 mph - N/A   Clear
12:55 AM 34.0 °F 28.8 °F 30.2 °F 86% 30.07 in 10.0 mi NNW 5.8 mph - N/A   Clear
1:15 AM 33.8 °F 30.8 °F 30.0 °F 86% 30.08 in 10.0 mi NW 3.5 mph - N/A   Clear
1:35 AM 33.8 °F 29.6 °F 29.8 °F 85% 30.07 in 10.0 mi NNW 4.6 mph - N/A   Clear
1:55 AM 32.9 °F 29.8 °F 29.8 °F 88% 30.07 in 10.0 mi NW 3.5 mph - N/A   Clear
2:15 AM 33.3 °F 30.2 °F 29.3 °F 85% 30.06 in 10.0 mi NNW 3.5 mph - N/A   Clear
2:35 AM 32.9 °F - 29.3 °F 87% 30.07 in 10.0 mi Calm Calm - N/A   Clear
2:55 AM 33.1 °F 28.7 °F 30.0 °F 89% 30.09 in 10.0 mi NW 4.6 mph - N/A   Scattered Clouds
3:15 AM 33.3 °F 28.9 °F 30.0 °F 88% 30.08 in 10.0 mi NW 4.6 mph - N/A   Clear
3:35 AM 33.4 °F 28.1 °F 30.0 °F 87% 30.09 in 10.0 mi NW 5.8 mph - N/A   Scattered Clouds
3:55 AM 33.4 °F 27.3 °F 29.8 °F 87% 30.08 in 10.0 mi NNW 6.9 mph - N/A   Mostly Cloudy
4:15 AM 34.2 °F 30.0 °F 29.7 °F 84% 30.10 in 10.0 mi NNW 4.6 mph - N/A   Scattered Clouds
4:35 AM 34.2 °F 29.0 °F 29.8 °F 84% 30.13 in 10.0 mi NW 5.8 mph - N/A   Mostly Cloudy
4:55 AM 34.5 °F 29.4 °F 29.7 °F 82% 30.13 in 10.0 mi NW 5.8 mph - N/A   Mostly Cloudy
5:15 AM 34.2 °F 31.2 °F 29.8 °F 84% 30.13 in 10.0 mi NW 3.5 mph - N/A   Scattered Clouds
5:35 AM 33.8 °F 28.6 °F 29.8 °F 85% 30.15 in 10.0 mi WNW 5.8 mph - N/A   Scattered Clouds
5:55 AM 33.8 °F 29.6 °F 30.6 °F 88% 30.16 in 10.0 mi West 4.6 mph - N/A   Clear
6:15 AM 33.8 °F 29.6 °F 30.7 °F 89% 30.15 in 10.0 mi NW 4.6 mph - N/A   Clear
6:35 AM 34.0 °F 28.8 °F 30.4 °F 87% 30.16 in 10.0 mi NW 5.8 mph - N/A   Clear
7:15 AM 34.7 °F 29.6 °F 30.0 °F 83% 30.17 in 10.0 mi NNW 5.8 mph - N/A   Scattered Clouds
7:35 AM 34.7 °F 28.8 °F 30.2 °F 84% 30.17 in 10.0 mi North 6.9 mph - N/A   Clear
7:55 AM 34.7 °F 28.1 °F 30.2 °F 84% 30.18 in 10.0 mi North 8.1 mph - N/A   Clear
8:15 AM 34.9 °F 29.9 °F 30.2 °F 83% 30.18 in 10.0 mi NNW 5.8 mph - N/A   Clear
8:35 AM 35.2 °F 32.4 °F 30.2 °F 82% 30.20 in 10.0 mi NNW 3.5 mph - N/A   Clear
8:55 AM 35.8 °F 31.9 °F 30.6 °F 81% 30.20 in 10.0 mi North 4.6 mph - N/A   Clear
9:15 AM 36.3 °F 32.5 °F 30.6 °F 80% 30.21 in 10.0 mi NNW 4.6 mph - N/A   Clear
9:35 AM 36.7 °F 31.2 °F 30.2 °F 77% 30.22 in 10.0 mi North 6.9 mph - N/A   Clear
9:55 AM 37.4 °F 30.8 °F 30.0 °F 75% 30.23 in 10.0 mi North 9.2 mph - N/A   Clear
10:15 AM 37.6 °F 32.3 °F 30.2 °F 75% 30.24 in 10.0 mi North 6.9 mph - N/A   Clear
10:35 AM 38.1 °F 32.9 °F 30.4 °F 74% 30.24 in 10.0 mi North 6.9 mph - N/A   Clear
10:55 AM 39.0 °F 32.8 °F 30.4 °F 71% 30.25 in 10.0 mi North 9.2 mph - N/A   Scattered Clouds
11:15 AM 39.4 °F 33.8 °F 30.2 °F 70% 30.25 in 10.0 mi North 8.1 mph - N/A   Scattered Clouds
11:35 AM 40.6 °F 35.4 °F 30.2 °F 66% 30.25 in 10.0 mi North 8.1 mph - N/A   Mostly Cloudy
11:55 AM 41.4 °F 36.8 °F 31.1 °F 67% 30.24 in 10.0 mi North 6.9 mph - N/A   Mostly Cloudy
12:15 PM 41.9 °F 37.5 °F 31.3 °F 66% 30.24 in 10.0 mi North 6.9 mph - N/A   Mostly Cloudy
12:35 PM 42.3 °F 36.8 °F 32.4 °F 68% 30.23 in 10.0 mi North 9.2 mph 16.1 mph N/A   Overcast
12:55 PM 43.7 °F 38.1 °F 32.7 °F 65% 30.22 in 10.0 mi North 10.4 mph 16.1 mph N/A   Mostly Cloudy
1:15 PM 44.4 °F 37.9 °F 33.4 °F 65% 30.22 in 10.0 mi North 13.8 mph 17.3 mph N/A   Mostly Cloudy
1:35 PM 44.8 °F 39.0 °F 32.7 °F 63% 30.21 in 10.0 mi North 11.5 mph 17.3 mph N/A   Mostly Cloudy
1:55 PM 45.7 °F 39.8 °F 33.4 °F 62% 30.21 in 10.0 mi North 12.7 mph - N/A   Mostly Cloudy
2:15 PM 46.2 °F 42.2 °F 33.1 °F 60% 30.20 in 10.0 mi North 8.1 mph 16.1 mph N/A   Overcast
2:35 PM 47.1 °F - 33.3 °F 59% 30.19 in 10.0 mi North 13.8 mph 17.3 mph N/A   Overcast
2:55 PM 47.7 °F - 32.0 °F 55% 30.20 in 10.0 mi North 8.1 mph - N/A   Overcast
3:15 PM 48.6 °F - 33.1 °F 55% 30.19 in 10.0 mi North 11.5 mph - N/A   Overcast
3:35 PM 48.9 °F - 32.0 °F 52% 30.19 in 10.0 mi NNE 15.0 mph - N/A   Overcast
3:55 PM 50.2 °F - 32.4 °F 50% 30.18 in 10.0 mi NNE 12.7 mph 17.3 mph N/A   Mostly Cloudy
4:15 PM 49.3 °F - 32.2 °F 52% 30.17 in 10.0 mi NNE 12.7 mph 17.3 mph N/A   Mostly Cloudy
4:35 PM 50.2 °F - 31.3 °F 48% 30.17 in 10.0 mi NE 12.7 mph 18.4 mph N/A   Overcast
4:55 PM 50.2 °F - 31.8 °F 49% 30.18 in 10.0 mi NE 13.8 mph 18.4 mph N/A   Overcast
5:15 PM 50.0 °F - 31.8 °F 50% 30.18 in 10.0 mi NE 12.7 mph 18.4 mph N/A   Overcast
5:35 PM 50.0 °F - 32.2 °F 50% 30.18 in 10.0 mi NNE 13.8 mph 20.7 mph N/A   Overcast
5:55 PM 50.0 °F - 31.5 °F 49% 30.18 in 10.0 mi ENE 12.7 mph - N/A   Overcast
6:15 PM 49.3 °F - 31.1 °F 50% 30.18 in 10.0 mi ENE 11.5 mph - N/A   Overcast
6:35 PM 49.1 °F - 31.5 °F 51% 30.18 in 10.0 mi ENE 12.7 mph - N/A   Overcast
6:55 PM 48.7 °F - 31.8 °F 52% 30.17 in 10.0 mi ENE 10.4 mph - N/A   Overcast
7:15 PM 48.4 °F - 32.0 °F 53% 30.18 in 10.0 mi ENE 9.2 mph - N/A   Overcast
7:35 PM 48.2 °F - 32.4 °F 54% 30.18 in 10.0 mi NE 9.2 mph - N/A   Overcast
7:55 PM 47.8 °F - 32.0 °F 54% 30.18 in 10.0 mi ENE 10.4 mph - N/A   Overcast
8:15 PM 47.7 °F - 32.0 °F 55% 30.19 in 10.0 mi ENE 9.2 mph - N/A   Overcast
8:35 PM 47.5 °F - 32.2 °F 55% 30.19 in 10.0 mi East 8.1 mph - N/A   Overcast
8:55 PM 47.3 °F - 32.4 °F 56% 30.20 in 10.0 mi East 8.1 mph - N/A   Overcast
9:15 PM 46.9 °F - 32.2 °F 57% 30.21 in 10.0 mi ENE 9.2 mph - N/A   Overcast
9:35 PM 46.9 °F - 32.2 °F 57% 30.21 in 10.0 mi ENE 9.2 mph - N/A   Overcast
9:55 PM 46.6 °F - 32.5 °F 58% 30.21 in 10.0 mi ENE 9.2 mph - N/A   Overcast
10:15 PM 46.4 °F 41.9 °F 32.5 °F 59% 30.21 in 10.0 mi ENE 9.2 mph - N/A   Overcast
10:35 PM 46.4 °F 41.9 °F 32.4 °F 58% 30.21 in 10.0 mi East 9.2 mph - N/A   Overcast
10:55 PM 46.0 °F 41.4 °F 32.5 °F 59% 30.21 in 10.0 mi ENE 9.2 mph - N/A   Overcast
11:15 PM 45.9 °F 41.7 °F 32.5 °F 60% 30.20 in 10.0 mi ENE 8.1 mph - N/A   Overcast
11:35 PM 45.5 °F 40.8 °F 33.3 °F 62% 30.20 in 10.0 mi ENE 9.2 mph - N/A   Overcast
11:55 PM 45.5 °F 41.3 °F 33.4 °F 63% 30.19 in 10.0 mi ENE 8.1 mph - N/A   Overcast